{"data":{"norad_id":68925,"intl_designator":"2026-098G","name":"KUIPER-00409","alt_names":[],"object_type":"PAYLOAD","status":"ACTIVE","operator":null,"country":"US","launch_date":"2026-04-30","launch_site_code":"FRGUI","launch_vehicle":null,"mission":null,"orbit_class":"UNKNOWN","rcs_meters":null,"size_class":null,"mass_kg":null,"dimensions":null,"purposes":[],"wikipedia_slug":null,"has_3d_model":false,"image_url":null,"decayed_at":null,"tle_current":{"epoch":"2026-05-25T02:56:24.190080Z","epoch_age_seconds":64183,"freshness":"FRESH","line1":"1 68925U 26098G   26145.12250220  .00068303  00000+0  20263-2 0  9991","line2":"2 68925  51.8730 178.9215 0008110  65.7655 294.4177 15.34156626  3807","mean_motion":15.34156626,"eccentricity":0.000811,"inclination_deg":51.873,"raan_deg":178.9215,"arg_perigee_deg":65.7655,"mean_anomaly_deg":294.4177,"bstar":0.0020263,"rev_number":380,"period_min":93.862645807847,"perigee_km":457.87818649203,"apogee_km":468.97520280475,"semimajor_km":6841.5636946484,"source":"CELESTRAK","updated_at":"2026-05-25T13:38:08.793651Z"}}}